Regional Weather Roundup
Issued by NWS

Home | Current Version | Previous Version | Graphics & Text | Print | Product List | Glossary On
Versions: 1 2 3 4 5 6 7 8 9 10 11 12 13 14 15 16 17 18 19 20 21 22 23 24 25 26 27 28 29 30 31 32 33 34 35 36 37 38 39 40 41 42 43 44 45 46 47 48
000
ASUS45 KBOU 240807
RWRCO

WEATHER ROUNDUP FOR COLORADO
NATIONAL WEATHER SERVICE DENVER/BOULDER CO
100 AM MST SAT JAN 24 2015

NOTE: "FAIR" INDICATES FEW OR NO CLOUDS BELOW 12000 FEET WITH NO
SIGNIFICANT WEATHER AND/OR OBSTRUCTIONS TO VISIBILITY.

COZ001>005-013-030-031-240900-
...NORTHWEST COLORADO...

CITY           SKY/WX    TMP DP  RH WIND       PRES   REMARKS
CRAIG          PTCLDY     5   1  83 CALM      30.36F
HAYDEN         CLEAR     12   1  62 E10       30.33F WCI  -1
MEEKER         PTCLDY     7   1  76 NE5       30.35F WCI  -2
MOUNT WERNER   NOT AVBL
STEAMBOAT SPGS CLEAR      7   1  79 CALM      30.34F
WALDEN         CLEAR      9   3  78 SE9       30.28F WCI  -5
$$

COZ006>008-011-240900-
...WEST CENTRAL VALLEYS...

CITY           SKY/WX    TMP DP  RH WIND       PRES   REMARKS
GRAND JUNCTION CLEAR     26  13  57 SE13      30.38F WCI  15
MONTROSE       PTCLDY    19  10  68 SE10      30.42F WCI   7
EAGLE          PTCLDY    12   9  85 CALM      30.44F
RIFLE          PTCLDY    19  11  70 NE3       30.41F
DELTA          PTCLDY    25  13  61 E9        30.42F WCI  15
NUCLA          PTCLDY    23  12  63 E10       30.40F WCI  12
$$

COZ017>023-064>068-240900-
...SOUTHWEST COLORADO...

CITY           SKY/WX    TMP DP  RH WIND       PRES   REMARKS
DURANGO        CLEAR     20  14  77 N8        30.32R WCI  10
CORTEZ         CLEAR     18  14  84 NE5       30.34R WCI  11
PAGOSA SPRINGS CLEAR     19  12  77 CALM      30.32R
TELLURIDE      NOT AVBL
WOLF CREEK PAS NOT AVBL
$$

COZ009-010-012-014-032>034-037-058>063-240900-
...CENTRAL COLORADO...

CITY           SKY/WX    TMP DP  RH WIND       PRES   REMARKS
ASPEN          CLEAR      9   1  70 CALM      30.36F
BUENA VISTA    PTCLDY    22  10  60 W3        30.31F
COPPER MTN     MOCLDY    16   7  67 SW6       30.31F WCI   7
BERTHOUD PASS  HAZE       9   3  78 NW15G24   30.30S VSB 1/4 WCI  -8
COTTONWOOD PAS PTCLDY    28   9  43 W9        30.29F WCI  20
GUNNISON       MOCLDY    -9 N/A N/A E3        30.45R
KREMMLING      PTCLDY     1  -4  78 CALM      30.42F
LEADVILLE      PTCLDY     8   3  80 NE9       30.31F WCI  -5
MONARCH PASS   PTCLDY    16   7  67 MISG      30.42R
SALIDA         PTCLDY    23  15  71 W7        30.40S WCI  14
SUNLIGHT       PTCLDY    19   9  63 CALM      30.35F
WILKERSON PASS MOCLDY    18   9  68 W9        30.30F WCI   6
$$

COZ069>075-240900-
...SAN LUIS VALLEY/SANGRE DE CRISTO MOUNTAINS...

CITY           SKY/WX    TMP DP  RH WIND       PRES   REMARKS
ALAMOSA        MOCLDY     6   1  80 CALM      30.34R
LA VETA PASS   NOT AVBL
SAGUACHE       PTCLDY    12   1  62 CALM      30.33S
$$

COZ035-036-038>040-240900-
...NORTHERN COLORADO FRONT RANGE...

CITY           SKY/WX    TMP DP  RH WIND       PRES   REMARKS
DENVER INTL AP CLEAR     32  22  66 SW14      30.19F WCI  22
DMNS CITY PARK   N/A     32  19  58 S6G12     30.18F WCI  27
AURORA         CLEAR     30  21  69 S12       30.20F WCI  20
FRONT RANGE AP NOT AVBL
ERIE MUNI ARPT CLEAR     31  21  66 S5        30.18F WCI  26
BOULDER MUN AP CLEAR     32  18  55 S3        30.17F
CENTENNIAL     PTCLDY    30  20  66 S9        30.20F WCI  22
BROOMFIELD     CLEAR     32  19  59 SW3       30.18F
FORT COLLINS   CLEAR     27  18  69 S9        30.17F WCI  17
LONGMONT       CLEAR     24  19  80 SW3       30.19F
$$

COZ041-046-047-076>085-087-088-240900-
...PIKES PEAK/PALMER DIVIDE AND SOUTHERN FOOTHILLS...

CITY           SKY/WX    TMP DP  RH WIND       PRES   REMARKS
COLO. SPRINGS  PTCLDY    26  19  74 N6        30.24F WCI  19
A. F. ACADEMY  PTCLDY    20  13  76 NE3       30.23F
ELLICOTT       PTCLDY   N/A N/A N/A CALM      30.23F
FALCON         PTCLDY    18  14  82 W6        30.23F WCI  10
FORT CARSON    PTCLDY    27  19  70 N8        30.22F WCI  19
LIMON          CLEAR     26  21  81 W9        30.21F WCI  17
MONUMENT HILL  CLEAR     23  18  80 SW10      30.21F WCI  12
TRINIDAD       PTCLDY    27  18  69 SW15      30.27F WCI  15
$$

COZ042>045-048>051-090-091-240900-
...NORTHEAST COLORADO...

CITY           SKY/WX    TMP DP  RH WIND       PRES   REMARKS
GREELEY ARPT   CLEAR     27  16  63 S6        30.15F WCI  20
AKRON          CLEAR     28  22  78 SW13      30.15F WCI  17
BURLINGTON     CLEAR     33  25  72 NW13      30.18F WCI  24
WRAY           CLEAR     29  25  86 SW6       30.15F WCI  23
STERLING       CLEAR     34  28  80 W10       30.13F WCI  26
HOLYOKE        CLEAR     34  27  75 W13       30.13F WCI  25
FORT MORGAN    CLEAR     27  22  84 W8        30.17F WCI  18
$$

COZ086-089-092>099-240900-
...SOUTHEAST COLORADO...

CITY           SKY/WX    TMP DP  RH WIND       PRES   REMARKS
PUEBLO         CLEAR     27  22  81 W8        30.25F WCI  19
LA JUNTA       CLEAR     33  24  69 W14       30.24F WCI  23
LAMAR          MOCLDY    32  27  81 SW7       30.21F WCI  26
SPRINGFIELD      N/A     31  25  78 NW12      30.22F WCI  22
$$



USA.gov is the U.S. government's official web portal to all federal, state and local government web resources and services.